When you browse on this site, cookies collect data to enhance your experience and personalize the content and advertising you see.
Visit our Privacy Policy to learn more. By continuing to use the site, you agree to this use of cookies and data.
  • En Estados Unidos
  • Lista de países
  • Para 7 días
  • Temperatura del agua
  • Mapa Satelital
  • El tiempo en el mapa
  • Informadores
  • user-avatar
    Iniciar sesión

    Tiempo cada hora Saurimo

    Hoy, 13 Diciembre, Jueves

    Tiempo Temperatura Precipitaciones Viento Presión Humedad
    00:00 +20°C° 0 mm 1 mps 672 mmHg 98%
    01:00 +20°C° 0 mm 1 mps 672 mmHg 98%
    02:00 +17°C° 0.1 mm 0 mps 671 mmHg 98%
    03:00 +17°C° 0.1 mm 0 mps 671 mmHg 98%
    04:00 +17°C° 0.1 mm 0 mps 671 mmHg 98%
    05:00 +18°C° 0 mm 0 mps 672 mmHg 96%
    06:00 +19°C° 0 mm 0 mps 672 mmHg 94%
    07:00 +20°C° 0 mm 0 mps 673 mmHg 93%
    08:00 +24°C° 0.5 mm 1 mps 673 mmHg 86%
    09:00 +25°C° 0.5 mm 1 mps 673 mmHg 80%
    10:00 +27°C° 0.5 mm 1 mps 673 mmHg 74%
    11:00 +28°C° 0.7 mm 1 mps 672 mmHg 72%
    12:00 +28°C° 0.7 mm 1 mps 672 mmHg 69%
    13:00 +27°C° 0 mm 1 mps 672 mmHg 71%
    14:00 +27°C° 1 mm 1 mps 672 mmHg 74%
    15:00 +27°C° 1 mm 1 mps 671 mmHg 76%
    16:00 +25°C° 1 mm 0 mps 671 mmHg 79%
    17:00 +23°C° 0.5 mm 0 mps 671 mmHg 83%
    18:00 +21°C° 0.5 mm 0 mps 671 mmHg 88%
    19:00 +21°C° 0.5 mm 1 mps 671 mmHg 93%
    20:00 +19°C° 0.3 mm 0 mps 671 mmHg 94%
    21:00 +19°C° 0.3 mm 0 mps 672 mmHg 94%
    22:00 +18°C° 0.3 mm 0 mps 672 mmHg 95%
    23:00 +18°C° 0.1 mm 0 mps 672 mmHg 95%

    Mañana, 14 Diciembre, Viernes

    Tiempo Temperatura Precipitaciones Viento Presión Humedad
    00:00 +18°C° 0.1 mm 0 mps 672 mmHg 95%
    01:00 +19°C° 0.1 mm 1 mps 671 mmHg 96%
    02:00 +17°C° 0 mm 0 mps 671 mmHg 96%
    03:00 +17°C° 0 mm 0 mps 671 mmHg 96%
    04:00 +17°C° 0 mm 0 mps 671 mmHg 96%
    05:00 +18°C° 0 mm 0 mps 671 mmHg 94%
    06:00 +19°C° 0 mm 0 mps 672 mmHg 92%
    07:00 +20°C° 0 mm 0 mps 672 mmHg 90%
    08:00 +23°C° 0.1 mm 0 mps 673 mmHg 81%
    09:00 +26°C° 0.1 mm 0 mps 673 mmHg 72%
    10:00 +28°C° 0.1 mm 0 mps 674 mmHg 62%
    11:00 +30°C° 0.4 mm 1 mps 673 mmHg 62%
    12:00 +30°C° 0.4 mm 1 mps 672 mmHg 62%
    13:00 +30°C° 0.4 mm 1 mps 672 mmHg 62%
    14:00 +29°C° 0.7 mm 1 mps 671 mmHg 67%
    15:00 +29°C° 0.7 mm 1 mps 671 mmHg 71%
    16:00 +28°C° 0.7 mm 1 mps 670 mmHg 76%
    17:00 +26°C° 1.7 mm 1 mps 670 mmHg 81%
    18:00 +24°C° 1.7 mm 1 mps 670 mmHg 87%
    19:00 +22°C° 1.7 mm 1 mps 671 mmHg 92%
    20:00 +22°C° 0.1 mm 1 mps 671 mmHg 93%
    21:00 +21°C° 0.1 mm 1 mps 671 mmHg 94%
    22:00 +21°C° 0.1 mm 1 mps 672 mmHg 95%
    23:00 +20°C° 0.1 mm 1 mps 671 mmHg 95%

    Pasado mañana, 15 Diciembre, Sábado

    Tiempo Temperatura Precipitaciones Viento Presión Humedad
    00:00 +20°C° 0.1 mm 1 mps 671 mmHg 96%
    01:00 +20°C° 0.1 mm 1 mps 671 mmHg 96%
    02:00 +20°C° 0.3 mm 1 mps 671 mmHg 96%
    03:00 +20°C° 0.3 mm 1 mps 671 mmHg 96%
    04:00 +20°C° 0.3 mm 1 mps 670 mmHg 96%
    05:00 +20°C° 0.1 mm 1 mps 671 mmHg 95%
    06:00 +21°C° 0.1 mm 1 mps 671 mmHg 94%
    07:00 +21°C° 0.1 mm 1 mps 672 mmHg 93%
    08:00 +23°C° 0.1 mm 1 mps 672 mmHg 87%
    09:00 +24°C° 0.1 mm 1 mps 673 mmHg 82%
    10:00 +26°C° 0.1 mm 2 mps 673 mmHg 76%
    11:00 +26°C° 0.6 mm 2 mps 672 mmHg 75%
    12:00 +27°C° 0.6 mm 2 mps 672 mmHg 73%
    13:00 +28°C° 0.6 mm 2 mps 671 mmHg 71%
    14:00 +27°C° 0.8 mm 2 mps 671 mmHg 75%
    15:00 +27°C° 0.8 mm 2 mps 671 mmHg 78%
    16:00 +26°C° 0.8 mm 1 mps 670 mmHg 82%
    17:00 +25°C° 0.9 mm 1 mps 671 mmHg 86%
    18:00 +24°C° 0.9 mm 1 mps 671 mmHg 90%
    19:00 +22°C° 0.9 mm 1 mps 671 mmHg 95%
    20:00 +22°C° 0.9 mm 1 mps 672 mmHg 95%
    21:00 +21°C° 0.9 mm 1 mps 672 mmHg 96%
    22:00 +20°C° 0.9 mm 2 mps 672 mmHg 96%
    23:00 +21°C° 0.1 mm 1 mps 672 mmHg 97%

    16 Diciembre, Domingo

    Tiempo Temperatura Precipitaciones Viento Presión Humedad
    00:00 +20°C° 0.1 mm 1 mps 671 mmHg 97%
    01:00 +20°C° 0.1 mm 1 mps 671 mmHg 97%
    02:00 +20°C° 0 mm 1 mps 671 mmHg 97%
    03:00 +20°C° 0 mm 1 mps 671 mmHg 97%
    04:00 +20°C° 0 mm 1 mps 670 mmHg 97%
    05:00 +20°C° 0 mm 1 mps 671 mmHg 96%
    06:00 +20°C° 0 mm 2 mps 672 mmHg 95%
    07:00 +20°C° 0 mm 2 mps 672 mmHg 94%
    08:00 +23°C° 0.7 mm 2 mps 672 mmHg 91%
    09:00 +24°C° 0.7 mm 2 mps 673 mmHg 89%
    10:00 +25°C° 0.7 mm 2 mps 673 mmHg 86%
    11:00 +25°C° 0.9 mm 3 mps 672 mmHg 85%
    12:00 +25°C° 0.9 mm 3 mps 671 mmHg 84%
    13:00 +26°C° 0.9 mm 3 mps 671 mmHg 82%
    14:00 +25°C° 0.8 mm 3 mps 671 mmHg 85%
    15:00 +25°C° 0.8 mm 3 mps 670 mmHg 88%
    16:00 +24°C° 0.8 mm 2 mps 670 mmHg 91%
    17:00 +23°C° 1 mm 2 mps 670 mmHg 92%
    18:00 +21°C° 1 mm 2 mps 671 mmHg 94%
    19:00 +20°C° 1 mm 2 mps 671 mmHg 95%
    20:00 +21°C° 0.3 mm 1 mps 671 mmHg 95%
    21:00 +21°C° 0.3 mm 1 mps 672 mmHg 96%
    22:00 +21°C° 0.3 mm 1 mps 672 mmHg 96%
    23:00 +20°C° 0 mm 1 mps 671 mmHg 96%

    17 Diciembre, Lunes

    Tiempo Temperatura Precipitaciones Viento Presión Humedad
    00:00 +20°C° 0 mm 1 mps 671 mmHg 96%
    01:00 +20°C° 0 mm 1 mps 670 mmHg 97%
    02:00 +19°C° 0 mm 1 mps 670 mmHg 97%
    03:00 +19°C° 0 mm 1 mps 670 mmHg 97%
    04:00 +19°C° 0 mm 1 mps 670 mmHg 97%
    05:00 +19°C° 0 mm 1 mps 671 mmHg 95%
    06:00 +20°C° 0 mm 1 mps 671 mmHg 94%
    07:00 +21°C° 0 mm 1 mps 672 mmHg 93%
    08:00 +23°C° 0.1 mm 1 mps 672 mmHg 85%
    09:00 +25°C° 0.1 mm 2 mps 672 mmHg 77%
    10:00 +27°C° 0.1 mm 3 mps 673 mmHg 69%
    11:00 +27°C° 0.4 mm 3 mps 672 mmHg 68%
    12:00 +27°C° 0.4 mm 3 mps 671 mmHg 66%
    13:00 +28°C° 0.4 mm 3 mps 670 mmHg 65%
    14:00 +27°C° 0.5 mm 3 mps 670 mmHg 70%
    15:00 +27°C° 0.5 mm 2 mps 670 mmHg 76%
    16:00 +26°C° 0.5 mm 2 mps 670 mmHg 82%
    17:00 +25°C° 0.4 mm 2 mps 670 mmHg 86%
    18:00 +23°C° 0.4 mm 2 mps 670 mmHg 89%
    19:00 +20°C° 0.4 mm 2 mps 670 mmHg 93%
    20:00 +21°C° 0 mm 1 mps 671 mmHg 94%
    21:00 +20°C° 0 mm 1 mps 671 mmHg 95%
    22:00 +20°C° 0 mm 1 mps 671 mmHg 96%
    23:00 +20°C° 0 mm 1 mps 671 mmHg 97%

    18 Diciembre, Martes

    Tiempo Temperatura Precipitaciones Viento Presión Humedad
    00:00 +20°C° 0 mm 1 mps 670 mmHg 97%
    01:00 +20°C° 0 mm 1 mps 670 mmHg 97%
    02:00 +19°C° 0 mm 1 mps 670 mmHg 98%
    03:00 +19°C° 0 mm 1 mps 670 mmHg 98%
    04:00 +19°C° 0 mm 1 mps 670 mmHg 98%
    05:00 +20°C° 0 mm 1 mps 670 mmHg 96%
    06:00 +21°C° 0 mm 1 mps 671 mmHg 94%
    07:00 +21°C° 0 mm 2 mps 672 mmHg 92%
    08:00 +23°C° 0.1 mm 2 mps 672 mmHg 85%
    09:00 +24°C° 0.1 mm 3 mps 672 mmHg 78%
    10:00 +26°C° 0.1 mm 3 mps 672 mmHg 71%
    11:00 +27°C° 0.2 mm 3 mps 671 mmHg 65%
    12:00 +28°C° 0.2 mm 4 mps 671 mmHg 59%
    13:00 +29°C° 0.2 mm 4 mps 671 mmHg 54%
    14:00 +29°C° 0.2 mm 3 mps 670 mmHg 58%
    15:00 +29°C° 0.2 mm 3 mps 670 mmHg 62%
    16:00 +28°C° 0.2 mm 2 mps 669 mmHg 66%
    17:00 +26°C° 0.3 mm 2 mps 669 mmHg 73%
    18:00 +24°C° 0.3 mm 2 mps 669 mmHg 81%
    19:00 +22°C° 0.3 mm 1 mps 670 mmHg 88%
    20:00 +21°C° 0.1 mm 1 mps 670 mmHg 90%
    21:00 +21°C° 0.1 mm 1 mps 670 mmHg 92%
    22:00 +20°C° 0.1 mm 1 mps 670 mmHg 94%
    23:00 +20°C° 0 mm 1 mps 670 mmHg 94%
    Mostrar más